Home   Weather   Minot   Past weeks

Flag for USA Past Weather in Minot, North Dakota, USA — Yesterday and Last 2 Weeks

Now
23 °F

Overcast.


Feels Like: 10 °F
Forecast: 13 / 20 °F
Wind: 16 mph from Northwest

Location: Minot International Airport

Current Time: Jan 24, 2017 at 1:37:47 pm

Latest Report: Jan 24, 2017 at 12:54 pm


Visibility: 10 mi

Pressure: 29.94 "Hg

Humidity: 74%

Dew Point: 16 °F

Location of MinotLocation

Past Weather in Minot — Graph

°F

Minot Temperature Yesterday

Maximum temperature yesterday: 29 °F (at 12:54 am)
Minimum temperature yesterday: 23 °F (at 7:54 pm)
Average temperature yesterday: 26 °F

High & Low Weather Summary for the Past Weeks

 TemperatureHumidityPressure
High43 °F (Jan 18, 12:54 pm)96% (Jan 20, 7:54 pm)30.64 "Hg (Jan 20, 7:54 pm)
Low-22 °F (Jan 13, 12:54 am)55% (Jan 15, 12:54 pm)29.29 "Hg (Jan 21, 4:22 am)
Average16 °F76%29.86 "Hg
* Reported Jan 9 11:01 am — Jan 24 11:54 am, Minot, Weather by CustomWeather, © 2017

Note: Actual official high and low records may vary slightly from our data, if they occured in-between our weather recording intervals... More about our weather records

Advertising

Minot Weather History for the Previous 24 Hours

Scroll right to see more
 ConditionsComfort  
Time TempWeatherWind HumidityBarometerVisibility
11:54 am
Tue, Jan 24
23 °FOvercast.12 mph78%29.96 "Hg10 mi
10:54 am23 °FOvercast.14 mph74%29.96 "Hg10 mi
9:54 am23 °FOvercast.10 mph74%29.94 "Hg10 mi
8:54 am23 °FOvercast.15 mph74%29.93 "Hg10 mi
7:54 am23 °FOvercast.13 mph78%29.93 "Hg10 mi
7:43 am23 °FMostly cloudy.13 mph78%29.85 "Hg10 mi
7:04 am24 °FMostly cloudy.12 mph77%29.85 "Hg10 mi
6:42 am24 °FMostly cloudy.13 mph81%29.84 "Hg10 mi
6:11 am24 °FMostly cloudy.10 mph81%29.84 "Hg10 mi
5:54 am24 °FOvercast.12 mph81%29.92 "Hg10 mi
4:54 am24 °FOvercast.12 mph81%29.92 "Hg10 mi
4:41 am24 °FMostly cloudy.10 mph81%29.83 "Hg10 mi
3:54 am25 °FOvercast.15 mph75%29.90 "Hg10 mi
2:54 am24 °FOvercast.9 mph81%29.89 "Hg10 mi
2:39 am24 °FOvercast.10 mph77%29.81 "Hg10 mi
1:54 am24 °FOvercast.8 mph77%29.89 "Hg10 mi
12:54 am23 °FOvercast.12 mph81%29.89 "Hg10 mi
11:54 pm
Mon, Jan 23
24 °FOvercast.12 mph77%29.88 "Hg10 mi
10:54 pm24 °FOvercast.13 mph77%29.87 "Hg10 mi
9:54 pm24 °FOvercast.16 mph75%29.87 "Hg10 mi
8:54 pm23 °FOvercast.14 mph81%29.88 "Hg10 mi
7:54 pm23 °FOvercast.10 mph81%29.87 "Hg10 mi
6:54 pm24 °FOvercast.12 mph77%29.86 "Hg10 mi
5:54 pm24 °FOvercast.12 mph77%29.85 "Hg10 mi
4:54 pm24 °FPartly sunny.15 mph77%29.84 "Hg10 mi
4:06 pm25 °FOvercast.14 mph78%29.76 "Hg10 mi
3:54 pm25 °FOvercast.13 mph78%29.83 "Hg10 mi
3:27 pm26 °FOvercast.20 mph74%29.75 "Hg10 mi
2:54 pm27 °FOvercast.17 mph75%29.82 "Hg10 mi
1:54 pm26 °FOvercast.10 mph77%29.83 "Hg10 mi
Weather by CustomWeather, © 2017

See weather overviewHow to use our weather pages